Wind_Speed
28 31 30 28 27 27 26 25 25 26 25 26 25 26 27 27 26 25 25 23 22 21 22 23 23 22 22 23 23 20 17 15 15 17 17 18 17 18 18 18 17 17 16
36 34 33 31 29 28 27 26 25 25 25 26 25 26 27 26 25 24 24 23 24 23 25 26 26 25 25 25 24 21 14 13 14 15 17 18 18 18 19 18 17 17 15
31 34 34 32 31 28 26 25 24 25 25 26 26 26 26 25 25 24 24 25 25 24 26 26 26 26 23 25 28 24 17 17 18 16 16 18 18 17 17 18 17 16 15
37 36 35 36 33 29 27 26 25 24 25 26 27 25 25 24 24 25 25 25 25 25 25 26 27 27 25 27 30 29 22 22 19 16 16 19 21 18 17 18 17 17 14
34 37 36 35 33 30 28 26 25 24 25 26 26 23 23 24 25 26 25 25 25 25 24 24 25 26 24 26 30 30 21 17 14 17 18 19 20 17 18 18 17 17 17
29 36 36 35 33 29 27 26 25 25 26 26 25 23 23 25 26 26 25 24 23 22 21 21 22 24 23 22 25 29 21 16 12 15 16 17 17 15 17 17 17 18 18
28 35 35 32 31 29 26 24 24 24 25 24 24 23 24 25 25 25 23 22 20 19 18 18 19 20 21 21 20 26 23 17 12 13 13 14 15 14 15 14 14 15 16
31 35 35 34 32 27 24 24 24 23 23 23 24 23 24 25 24 23 21 19 17 16 15 16 16 16 16 17 19 23 23 17 9 11 11 11 11 12 12 12 12 12 12
23 31 33 40 38 25 22 23 21 21 22 22 23 24 23 23 22 19 18 16 15 13 13 14 14 14 14 11 14 16 18 17 9 12 12 12 12 11 11 11 11 11 11
34 37 31 28 28 28 24 21 20 21 22 23 23 22 21 20 18 15 14 13 12 12 13 12 11 11 10 10 7 11 13 14 12 12 12 11 10 12 11 11 10 12 13
23 16 26 30 23 22 23 21 21 21 22 24 23 22 19 18 15 14 13 12 11 9 9 9 7 8 8 9 9 9 9 7 8 11 10 8 9 10 11 10 10 10 12
27 29 34 26 25 24 23 23 23 24 23 21 19 18 16 14 12 10 9 9 8 8 6 6 7 9 11 11 10 8 6 6 7 9 9 5 5 7 8 7 7 7 7
24 34 30 25 27 27 25 25 24 24 20 16 14 13 12 11 8 9 8 8 9 9 12 10 9 8 8 8 10 11 10 9 8 9 10 9 5 4 5 7 7 4 6
27 31 25 25 28 26 27 26 24 21 16 14 14 13 16 20 17 17 14 13 11 9 8 7 7 8 9 10 10 11 11 10 10 9 7 4 5 3 1 2 6 4 5
17 25 24 27 28 26 25 23 20 18 20 19 18 18 16 13 11 9 10 10 9 5 6 5 4 4 4 4 5 8 12 13 9 10 9 6 5 4 2 5 6 6 5
20 26 27 29 28 26 23 20 21 22 18 17 16 14 13 12 9 8 9 10 8 7 6 4 4 4 5 6 8 13 13 13 11 11 10 8 5 6 6 7 6 5 5
27 31 31 30 25 26 24 25 23 21 17 14 12 10 10 8 8 9 11 11 9 7 6 5 4 4 6 9 13 14 9 13 12 12 14 13 5 5 7 7 5 5 5
32 33 26 29 31 31 32 26 22 17 13 13 12 13 13 15 14 13 12 10 7 7 5 4 6 8 10 10 9 7 10 7 10 11 14 15 3 4 7 4 6 6 6
40 35 27 30 34 33 29 24 19 13 13 15 16 17 16 15 15 13 10 10 5 4 3 6 9 11 11 10 8 5 3 9 9 11 15 17 16 5 4 6 4 5 6
43 37 32 32 33 30 26 22 18 15 16 17 17 16 15 13 13 11 9 6 3 1 5 9 11 10 11 11 6 4 5 7 9 12 15 15 15 13 11 9 7 8 9
37 40 38 36 34 32 31 25 20 19 20 16 16 15 13 12 12 8 4 1 2 7 9 10 9 11 12 8 5 9 7 3 9 12 12 10 12 12 10 11 9 5 7
40 37 37 38 39 36 30 26 20 19 19 19 19 16 14 11 8 5 4 4 5 6 6 6 9 8 4 7 5 3 2 5 5 12 8 10 11 10 12 14 9 9 10
32 38 40 39 38 32 27 25 20 21 24 23 22 17 13 9 6 4 3 2 0 3 5 6 6 5 4 1 4 1 1 2 2 1 3 5 6 9 12 11 10 12 10
37 39 37 38 35 30 28 31 30 30 26 26 24 19 14 9 7 7 5 1 2 5 6 7 8 7 2 2 2 3 0 4 3 2 1 0 5 7 10 10 11 12 10
35 37 37 35 32 27 32 30 33 33 29 25 21 19 15 12 9 6 2 2 6 6 7 8 6 3 3 2 2 5 7 5 5 3 2 4 4 8 5 6 13 17 19
31 32 31 32 28 28 25 27 36 34 28 27 24 20 15 12 7 3 3 7 8 7 9 7 3 5 7 7 7 5 3 3 5 4 3 5 5 3 5 9 12 15 18
Wind_Direction
157 154 150 145 141 139 134 129 125 119 114 110 108 106 105 103 100 97 94 92 86 83 81 80 77 74 71 68 65 58 52 56 72 70 63 58 52 47 48 49 54 47 46
153 154 152 146 143 141 137 133 126 122 117 112 111 110 108 107 104 101 100 95 91 85 82 80 75 71 68 63 56 48 60 77 88 84 65 58 58 51 45 44 46 44 44
146 152 149 146 144 144 139 135 130 125 120 116 115 114 112 108 105 103 101 101 97 89 84 78 73 69 65 61 55 54 83 84 90 84 68 61 57 50 47 44 42 40 42
152 154 151 150 148 145 141 136 131 126 123 119 118 116 111 109 108 108 106 103 99 94 87 81 72 69 69 64 58 57 89 87 96 87 72 59 54 53 46 40 35 37 38
151 153 152 147 143 143 138 135 128 127 124 122 117 117 115 114 112 112 111 110 106 100 94 84 74 67 68 67 60 59 64 66 73 78 69 60 57 55 53 47 40 33 31
149 152 148 145 143 141 137 132 133 130 127 123 121 123 119 118 116 117 117 113 109 103 92 82 76 71 69 62 55 50 51 58 82 70 59 58 59 60 50 49 43 40 33
147 146 145 144 139 135 131 132 134 131 127 127 127 124 123 121 121 119 118 115 112 102 88 79 71 68 68 61 51 49 51 61 85 65 62 61 52 48 45 40 43 38 31
148 144 141 140 130 124 136 139 139 131 130 130 126 127 126 124 121 118 116 110 103 92 81 71 66 61 55 59 52 50 51 55 74 62 57 58 57 49 44 38 31 33 30
82 117 124 125 115 127 147 143 134 134 132 131 133 131 127 122 118 117 111 103 94 85 78 75 74 68 60 66 52 53 47 49 61 39 49 49 46 49 43 33 37 29 26
90 100 114 104 129 147 153 143 140 137 136 135 131 132 128 122 116 115 108 100 94 86 82 73 67 65 61 60 63 39 35 29 45 30 32 43 41 47 41 34 23 42 40
131 116 122 132 141 155 147 143 144 140 140 136 136 132 121 121 105 109 109 102 92 96 89 69 55 73 64 60 52 35 14 13 8 27 43 46 38 48 48 41 38 33 44
150 149 146 151 159 160 154 152 145 147 142 139 135 132 127 124 118 116 106 104 98 94 96 68 94 79 76 72 57 42 39 30 9 9 11 46 50 75 75 52 24 13 13
152 159 163 165 167 164 159 148 147 144 144 142 145 139 140 141 140 146 130 129 130 102 109 102 87 72 63 65 70 74 55 32 17 359 339 325 350 101 98 102 84 32 15
164 171 171 170 172 168 160 154 149 152 143 134 135 142 136 133 120 131 130 120 127 110 99 87 73 77 78 70 67 63 48 25 23 22 13 321 320 324 188 142 113 93 42
179 182 184 181 174 173 162 156 158 155 146 138 143 135 150 150 156 145 119 120 120 112 95 95 89 80 62 32 25 21 14 7 359 7 20 344 296 293 216 148 124 101 87
193 188 182 179 173 169 164 174 167 157 151 148 145 156 162 171 168 144 125 115 113 104 100 83 58 40 41 20 9 358 353 354 357 359 1 7 349 279 245 173 150 115 87
186 186 183 181 184 175 179 170 159 160 154 152 159 164 174 167 157 140 127 110 101 108 93 89 71 40 4 352 344 346 3 359 357 348 350 351 349 289 240 146 123 108 89
181 180 183 189 183 178 172 164 153 149 148 158 158 148 147 143 142 126 116 106 104 105 84 48 20 5 0 2 13 359 340 29 24 39 36 33 42 199 160 128 114 102 85
180 180 172 174 171 169 169 165 153 146 145 140 138 135 137 130 132 127 121 108 101 87 28 14 5 356 359 350 352 347 356 10 40 47 49 56 55 82 148 55 21 29 34
182 179 179 176 176 173 170 165 161 146 138 141 141 137 140 134 134 140 126 126 128 317 345 344 342 346 345 336 330 340 344 346 58 57 53 53 68 63 49 23 16 356 338
179 181 184 180 181 179 176 165 162 156 151 151 154 150 150 147 145 146 134 145 319 339 352 347 343 341 342 346 321 338 327 123 30 40 27 39 57 57 48 36 11 10 3
179 184 188 187 186 187 187 183 174 167 166 163 155 158 161 160 157 171 222 271 306 326 332 334 331 338 357 358 0 354 14 319 9 352 16 58 55 37 24 22 35 31 4
178 184 189 190 191 191 195 180 176 168 162 165 166 164 152 155 168 203 201 179 138 334 338 342 337 328 323 356 69 112 28 232 303 203 96 26 353 347 2 20 25 12 359
180 187 191 195 193 191 198 186 181 175 171 177 171 166 158 170 188 195 184 169 318 337 343 345 340 318 286 163 189 47 89 220 189 299 280 319 335 329 321 338 344 350 338
180 185 189 194 194 195 191 193 189 186 182 177 164 159 161 168 177 163 144 1 357 2 359 353 356 55 38 43 351 315 298 265 256 197 248 282 300 320 315 315 313 317 318
183 183 190 192 200 196 196 206 196 190 180 164 159 161 162 159 144 111 8 354 7 357 359 356 12 9 340 321 313 283 263 270 266 262 255 271 272 300 301 309 315 321 322
Height
804 805 808 813 816 819 824 827 828 828 829 829 832 832 833 836 839 841 843 845 847 846 845 845 846 846 847 848 847 846 846 846 846 847 846 845 844 844 842 840 840 839 839
798 804 807 812 816 822 823 828 829 830 830 831 834 835 835 838 840 843 844 847 847 848 848 848 847 848 849 849 849 848 845 845 846 847 847 847 846 847 846 844 842 842 841
803 806 808 812 816 823 826 829 831 831 832 832 835 837 837 840 841 845 847 848 848 850 851 851 850 849 852 853 850 847 847 847 847 849 848 847 848 847 846 845 845 845 844
801 805 807 809 816 821 827 829 832 834 834 834 835 839 840 842 843 844 848 851 852 851 853 854 854 852 852 855 853 852 850 850 850 851 851 851 849 848 849 848 848 846 846
804 804 808 812 816 825 827 832 833 835 836 836 836 841 841 844 844 846 849 852 853 853 854 854 855 854 856 855 856 855 856 855 854 853 854 853 851 852 850 850 849 851 850
806 808 811 814 820 827 828 831 836 837 836 836 837 842 844 844 846 848 851 853 854 856 857 857 856 856 856 857 858 856 857 856 857 856 856 855 853 854 852 851 852 850 851
808 809 812 819 823 826 830 835 839 839 837 839 839 843 846 845 847 849 852 853 856 857 859 859 859 859 858 858 858 858 858 857 859 859 858 857 856 856 853 854 852 852 853
810 809 812 817 822 827 835 838 841 840 840 842 841 845 847 847 849 851 855 857 858 859 861 861 860 861 863 862 860 861 859 861 861 861 861 859 858 858 857 856 855 853 853
803 804 810 813 816 832 837 839 839 840 842 843 844 846 848 850 850 854 856 858 860 862 863 862 861 862 862 862 864 862 861 862 863 862 861 861 860 858 858 857 857 856 855
816 819 812 818 825 830 836 837 841 842 843 844 846 849 849 851 853 855 858 860 860 862 863 865 865 862 862 863 863 864 863 863 863 861 862 861 860 859 858 857 857 856 856
825 829 830 822 832 834 833 837 841 843 845 846 848 850 852 854 855 857 859 861 861 864 865 865 865 863 863 863 863 864 863 863 862 861 861 861 861 860 858 857 857 856 857
824 828 823 825 828 833 836 838 840 844 847 849 850 851 852 855 857 859 861 860 863 862 865 864 865 864 864 865 864 863 863 862 862 861 860 861 861 860 858 858 857 856 856
823 825 826 828 831 834 836 838 843 845 847 849 850 852 854 857 857 858 861 862 864 864 864 863 865 865 865 864 863 863 862 862 862 861 860 859 860 859 858 857 856 856 855
826 829 829 830 833 836 838 840 842 845 846 849 849 852 855 858 858 859 860 862 863 864 863 864 864 864 864 864 865 863 862 862 861 861 859 859 859 858 857 857 855 855 855
825 827 829 830 834 837 839 841 843 844 847 849 851 854 856 857 858 859 861 860 863 863 863 863 863 863 862 864 863 864 862 862 862 860 858 858 858 858 857 856 855 854 854
826 827 829 833 836 838 840 842 844 847 848 851 850 853 854 857 857 858 860 860 861 862 863 863 863 862 863 863 864 862 861 861 861 858 857 856 856 856 855 854 855 854 856
825 829 832 833 836 838 842 843 845 847 848 850 851 853 854 855 857 857 858 859 862 863 863 864 864 862 863 862 863 862 861 861 860 858 856 854 854 854 854 855 855 854 854
824 828 832 833 835 836 840 842 845 847 847 850 852 851 854 853 855 856 858 860 861 862 862 863 861 862 862 862 862 862 862 861 861 859 856 854 852 854 855 856 855 854 854
820 824 829 832 833 836 838 841 844 847 848 848 851 852 854 852 855 856 858 858 860 862 863 862 861 862 861 862 862 862 862 861 860 859 857 855 855 855 856 856 856 855 854
816 822 826 829 832 835 837 840 847 846 847 849 850 852 854 852 853 856 856 858 861 862 862 861 861 862 862 861 861 861 861 861 860 859 858 858 857 856 856 856 855 854 853
816 819 822 825 828 831 836 839 841 842 845 848 850 852 852 852 854 855 857 860 861 860 859 860 861 861 861 859 859 860 859 859 859 859 859 858 857 857 856 855 853 852 851
814 818 820 823 826 830 832 835 838 841 845 847 850 852 853 853 854 856 858 858 859 859 860 860 860 860 859 859 858 858 859 858 857 857 857 857 857 856 856 856 854 853 851
812 814 818 822 824 827 830 835 838 841 845 847 850 851 852 853 855 855 856 857 858 859 859 859 859 858 857 857 857 858 859 861 858 855 854 854 853 854 854 854 854 853 851
805 812 815 819 822 827 829 831 833 835 839 844 846 848 851 853 854 855 856 857 857 857 857 856 856 855 855 855 856 856 856 856 856 856 852 850 851 850 851 851 851 850 849
803 806 811 818 821 826 828 830 831 834 838 842 845 848 851 853 855 857 856 857 856 856 855 855 854 853 854 855 855 855 854 853 852 851 852 849 847 847 846 847 848 846 845
804 808 812 816 821 824 827 828 829 831 836 841 845 848 851 854 856 856 856 855 855 855 854 853 853 852 853 854 854 853 852 852 851 849 850 847 847 845 845 844 844 843 841